User: anonymous   Login
Location: Unspecified
(0.0000°N, 0.0000°E)
Time: 09:28:36
(UTC+00:00)
Language:

GALILEO-FM2 - Orbit

View from above orbital plane
View from above orbital plane
View from above satellite
View from above satellite

Ground track
Ground track

The orbit data is extracted from the following two-line orbital elements,

1 37847U 11060B   24063.79431487 -.00000076  00000-0  00000-0 0  9999
2 37847  57.1277   4.3849 0005201 335.8857 219.1073  1.70475268 76887
Epoch (UTC): 03 March 2024 19:03:48
Eccentricity: 0.0005201
inclination: 57.1277°
perigee height: 23206 km
apogee height: 23237 km
right ascension of ascending node: 4.3849°
argument of perigee: 335.8857°
revolutions per day: 1.70475268
mean anomaly at epoch: 219.1073°
orbit number at epoch: 7688

The dashed part of the orbit path shows where the satellite is in the earth's shadow,  

DLR